This is the latest recevied weather packets stored in our database for station/object KC4GS-13. If no packets are shown the sender has not sent any weather packets the latest 10 day(s).
| Time | Temp. | Humidity | Pressure | Rain* | Wind** | Luminosity | Snow |
|---|---|---|---|---|---|---|---|
| 1778081200 | 23.89° C | 72% | 1017.6 hPa | 0 mm | - | 126 W/m² | - |
| 1778080898 | 23.89° C | 73% | 1017.8 hPa | 0 mm | - | 114 W/m² | - |
| 1778080597 | 23.89° C | 73% | 1017.4 hPa | 0 mm | - | 182 W/m² | - |
| 1778080293 | 23.89° C | 73% | 1017.5 hPa | 0 mm | - | 246 W/m² | - |
| 1778079990 | 23.89° C | 73% | 1017.3 hPa | 0 mm | - | 252 W/m² | - |
| 1778079687 | 23.33° C | 74% | 1017.2 hPa | 0 mm | - | 230 W/m² | - |
| 1778079384 | 23.33° C | 75% | 1017 hPa | 0 mm | - | 252 W/m² | - |
| 1778079080 | 22.78° C | 75% | 1016.9 hPa | 0 mm | - | 271 W/m² | - |
| 1778078778 | 22.78° C | 75% | 1016.8 hPa | 0 mm | - | 204 W/m² | - |
| 1778078474 | 22.78° C | 76% | 1017 hPa | 0 mm | - | 279 W/m² | - |
| 1778078172 | 22.78° C | 76% | 1016.9 hPa | 0 mm | - | 244 W/m² | - |
| 1778077870 | 22.78° C | 77% | 1016.9 hPa | 0 mm | - | 215 W/m² | - |
| 1778077568 | 22.22° C | 77% | 1017 hPa | 0 mm | - | 216 W/m² | - |
| 1778077266 | 22.22° C | 78% | 1016.8 hPa | 0 mm | - | 232 W/m² | - |
| 1778076963 | 21.67° C | 77% | 1016.8 hPa | 0 mm | - | 223 W/m² | - |
| 1778076662 | 21.67° C | 79% | 1017 hPa | 0 mm | - | 240 W/m² | - |
| 1778076359 | 21.11° C | 79% | 1016.7 hPa | 0 mm | - | 193 W/m² | - |
| 1778076056 | 21.11° C | 79% | 1016.8 hPa | 0 mm | - | 148 W/m² | - |
| 1778075753 | 21.11° C | 79% | 1016.9 hPa | 0 mm | - | 139 W/m² | - |
| 1778075449 | 21.11° C | 79% | 1017.1 hPa | 0 mm | - | 154 W/m² | - |
| 1778075146 | 21.11° C | 79% | 1016.8 hPa | 0 mm | - | 135 W/m² | - |
| 1778074841 | 21.11° C | 79% | 1017 hPa | 0 mm | - | 142 W/m² | - |
| 1778074539 | 21.11° C | 79% | 1017 hPa | 0 mm | - | 147 W/m² | - |
| 1778074236 | 21.11° C | 80% | 1017.1 hPa | 0 mm | - | 156 W/m² | - |
| 1778073933 | 21.11° C | 80% | 1017 hPa | 0 mm | - | 144 W/m² | - |
* Rain latest hour (hover to see other rain measurements)
** Current wind speed in m/s (hover to see current wind gust speed)